Time,TemperatureF,DewpointF,PressureIn,WindDirection,WindDirectionDegrees,WindSpeedMPH,WindSpeedGustMPH,Humidity,HourlyPrecipIn,Conditions,Clouds,dailyrainin,SolarRadiationWatts/m^2,SoftwareType,DateUTC
2013-12-18 00:42:00,33.0,19.0,-100.00,South,175,3.0,5.0,56,-99.99,,,0.00,0.000000,,2013-12-18 06:42:00,
2013-12-18 00:53:00,33.0,19.0,-100.00,South,175,3.0,5.0,56,-99.99,,,0.00,0.000000,,2013-12-18 06:53:00,
2013-12-18 01:02:00,33.0,19.0,-100.00,South,175,3.0,5.0,56,-99.99,,,0.00,0.000000,,2013-12-18 07:02:00,
2013-12-18 01:12:00,33.0,19.0,-100.00,South,175,3.0,5.0,56,-99.99,,,0.00,0.000000,,2013-12-18 07:12:00,
2013-12-18 01:42:00,30.0,21.0,-100.00,SSE,159,4.0,6.0,69,0.00,,,0.00,0.000000,,2013-12-18 07:42:00,
2013-12-18 01:53:00,30.0,21.0,-100.00,SSE,159,4.0,6.0,69,0.00,,,0.00,0.000000,,2013-12-18 07:53:00,
2013-12-18 02:02:00,30.0,21.0,-100.00,SSE,159,4.0,6.0,69,0.00,,,0.00,0.000000,,2013-12-18 08:02:00,
2013-12-18 02:12:00,30.0,21.0,-100.00,SSE,159,4.0,6.0,69,0.00,,,0.00,0.000000,,2013-12-18 08:12:00,
2013-12-18 02:42:00,29.0,21.0,-100.00,SSE,156,4.0,6.0,73,0.00,,,0.00,0.000000,,2013-12-18 08:42:00,
2013-12-18 02:52:00,29.0,21.0,-100.00,SSE,156,4.0,6.0,73,0.00,,,0.00,0.000000,,2013-12-18 08:52:00,
2013-12-18 03:03:00,29.0,21.0,-100.00,SSE,156,4.0,6.0,73,0.00,,,0.00,0.000000,,2013-12-18 09:03:00,
2013-12-18 03:11:00,29.0,21.0,-100.00,SSE,156,4.0,6.0,73,0.00,,,0.00,0.000000,,2013-12-18 09:11:00,
2013-12-18 03:13:00,31.0,21.0,-100.00,South,169,4.0,6.0,65,0.00,,,0.00,0.000000,,2013-12-18 09:13:00,
2013-12-18 03:43:00,31.0,21.0,-100.00,South,169,4.0,6.0,65,0.00,,,0.00,0.000000,,2013-12-18 09:43:00,
2013-12-18 03:53:00,31.0,21.0,-100.00,South,169,4.0,6.0,65,0.00,,,0.00,0.000000,,2013-12-18 09:53:00,
2013-12-18 04:03:00,31.0,21.0,-100.00,South,169,4.0,6.0,65,0.00,,,0.00,0.000000,,2013-12-18 10:03:00,
2013-12-18 04:42:00,29.0,19.0,-100.00,SSE,165,4.0,6.0,67,0.00,,,0.00,0.000000,,2013-12-18 10:42:00,
2013-12-18 04:52:00,29.0,19.0,-100.00,SSE,165,4.0,6.0,67,0.00,,,0.00,0.000000,,2013-12-18 10:52:00,
2013-12-18 05:03:00,29.0,19.0,-100.00,SSE,165,4.0,6.0,67,0.00,,,0.00,0.000000,,2013-12-18 11:03:00,
2013-12-18 05:12:00,29.0,19.0,-100.00,SSE,165,4.0,6.0,67,0.00,,,0.00,0.000000,,2013-12-18 11:12:00,
2013-12-18 05:42:00,29.0,20.0,-100.00,SSE,165,4.0,8.0,68,0.00,,,0.00,0.000000,,2013-12-18 11:42:00,
2013-12-18 05:53:00,29.0,20.0,-100.00,SSE,165,4.0,8.0,68,0.00,,,0.00,0.000000,,2013-12-18 11:53:00,
2013-12-18 06:02:00,29.0,20.0,-100.00,SSE,165,4.0,8.0,68,0.00,,,0.00,0.000000,,2013-12-18 12:02:00,
2013-12-18 06:11:00,29.0,20.0,-100.00,SSE,165,4.0,8.0,68,0.00,,,0.00,0.000000,,2013-12-18 12:11:00,
2013-12-18 06:42:00,29.0,20.0,-100.00,South,177,4.0,7.0,70,0.00,,,0.00,0.000000,,2013-12-18 12:42:00,
2013-12-18 06:52:00,29.0,20.0,-100.00,South,177,4.0,7.0,70,0.00,,,0.00,0.000000,,2013-12-18 12:52:00,
2013-12-18 07:01:00,29.0,20.0,-100.00,South,177,4.0,7.0,70,0.00,,,0.00,0.000000,,2013-12-18 13:01:00,
2013-12-18 07:12:00,29.0,20.0,-100.00,South,177,4.0,7.0,70,0.00,,,0.00,0.000000,,2013-12-18 13:12:00,
2013-12-18 07:42:00,30.0,20.0,-100.00,South,173,6.0,10.0,65,0.00,,,-99.99,0.000000,,2013-12-18 13:42:00,
2013-12-18 07:52:00,30.0,20.0,-100.00,South,173,6.0,10.0,65,0.00,,,-99.99,0.000000,,2013-12-18 13:52:00,
2013-12-18 08:02:00,30.0,20.0,-100.00,South,173,6.0,10.0,65,0.00,,,-99.99,0.000000,,2013-12-18 14:02:00,
2013-12-18 08:11:00,30.0,20.0,-100.00,South,173,6.0,10.0,65,0.00,,,-99.99,0.000000,,2013-12-18 14:11:00,
2013-12-18 08:42:00,34.0,22.0,-100.00,SSE,168,7.0,12.0,61,0.00,,,0.00,57.000000,,2013-12-18 14:42:00,
2013-12-18 08:52:00,34.0,22.0,-100.00,SSE,168,7.0,12.0,61,0.00,,,0.00,57.000000,,2013-12-18 14:52:00,
2013-12-18 09:02:00,34.0,22.0,-100.00,SSE,168,7.0,12.0,61,0.00,,,0.00,57.000000,,2013-12-18 15:02:00,
2013-12-18 09:11:00,34.0,22.0,-100.00,SSE,168,7.0,12.0,61,0.00,,,0.00,57.000000,,2013-12-18 15:11:00,
2013-12-18 09:13:00,39.0,23.0,-100.00,South,172,9.0,15.0,53,0.00,,,0.00,253.000000,,2013-12-18 15:13:00,
2013-12-18 09:44:00,39.0,23.0,-100.00,South,172,9.0,15.0,53,0.00,,,0.00,253.000000,,2013-12-18 15:44:00,
2013-12-18 09:53:00,39.0,23.0,-100.00,South,172,9.0,15.0,53,0.00,,,0.00,253.000000,,2013-12-18 15:53:00,
2013-12-18 10:04:00,39.0,23.0,-100.00,South,172,9.0,15.0,53,0.00,,,0.00,253.000000,,2013-12-18 16:04:00,
2013-12-18 10:42:00,47.0,26.0,-100.00,South,178,8.0,17.0,43,0.00,,,0.00,426.000000,,2013-12-18 16:42:00,
2013-12-18 10:53:00,47.0,26.0,-100.00,South,178,8.0,17.0,43,0.00,,,0.00,426.000000,,2013-12-18 16:53:00,
2013-12-18 11:02:00,47.0,26.0,-100.00,South,178,8.0,17.0,43,0.00,,,0.00,426.000000,,2013-12-18 17:02:00,
2013-12-18 11:12:00,47.0,26.0,-100.00,South,178,8.0,17.0,43,0.00,,,0.00,426.000000,,2013-12-18 17:12:00,
2013-12-18 11:42:00,53.0,27.0,-100.00,SSW,198,10.0,23.0,36,0.00,,,0.00,529.000000,,2013-12-18 17:42:00,
2013-12-18 11:52:00,53.0,27.0,-100.00,SSW,198,10.0,23.0,36,0.00,,,0.00,529.000000,,2013-12-18 17:52:00,
2013-12-18 12:02:00,53.0,27.0,-100.00,SSW,198,10.0,23.0,36,0.00,,,0.00,529.000000,,2013-12-18 18:02:00,
2013-12-18 12:12:00,53.0,27.0,-100.00,SSW,198,10.0,23.0,36,0.00,,,0.00,529.000000,,2013-12-18 18:12:00,
2013-12-18 12:42:00,58.0,31.0,-100.00,SSW,204,12.0,24.0,36,0.00,,,0.00,623.000000,,2013-12-18 18:42:00,
2013-12-18 12:52:00,58.0,31.0,-100.00,SSW,204,12.0,24.0,36,0.00,,,0.00,623.000000,,2013-12-18 18:52:00,
2013-12-18 13:02:00,58.0,31.0,-100.00,SSW,204,12.0,24.0,36,0.00,,,0.00,623.000000,,2013-12-18 19:02:00,
2013-12-18 13:11:00,58.0,31.0,-100.00,SSW,204,12.0,24.0,36,0.00,,,0.00,623.000000,,2013-12-18 19:11:00,
2013-12-18 13:42:00,58.0,33.0,-100.00,SSW,200,11.0,22.0,38,0.00,,,0.00,438.000000,,2013-12-18 19:42:00,
2013-12-18 13:52:00,58.0,33.0,-100.00,SSW,200,11.0,22.0,38,0.00,,,0.00,438.000000,,2013-12-18 19:52:00,
2013-12-18 14:02:00,58.0,33.0,-100.00,SSW,200,11.0,22.0,38,0.00,,,0.00,438.000000,,2013-12-18 20:02:00,
2013-12-18 14:12:00,58.0,33.0,-100.00,SSW,200,11.0,22.0,38,0.00,,,0.00,438.000000,,2013-12-18 20:12:00,
2013-12-18 14:42:00,60.0,31.0,-100.00,SSW,206,13.0,20.0,33,0.00,,,0.00,517.000000,,2013-12-18 20:42:00,
2013-12-18 14:53:00,60.0,31.0,-100.00,SSW,206,13.0,20.0,33,0.00,,,0.00,517.000000,,2013-12-18 20:53:00,
2013-12-18 15:02:00,60.0,31.0,-100.00,SSW,206,13.0,20.0,33,0.00,,,0.00,517.000000,,2013-12-18 21:02:00,
2013-12-18 15:11:00,60.0,31.0,-100.00,SSW,206,13.0,20.0,33,0.00,,,0.00,517.000000,,2013-12-18 21:11:00,
2013-12-18 15:43:00,60.0,32.0,-100.00,SSW,197,10.0,21.0,35,0.00,,,0.00,384.000000,,2013-12-18 21:43:00,
2013-12-18 15:53:00,60.0,32.0,-100.00,SSW,197,10.0,21.0,35,0.00,,,0.00,384.000000,,2013-12-18 21:53:00,
2013-12-18 16:03:00,60.0,32.0,-100.00,SSW,197,10.0,21.0,35,0.00,,,0.00,384.000000,,2013-12-18 22:03:00,
2013-12-18 16:12:00,60.0,32.0,-100.00,SSW,197,10.0,21.0,35,0.00,,,0.00,384.000000,,2013-12-18 22:12:00,
2013-12-18 16:43:00,58.0,32.0,-100.00,SSW,194,9.0,20.0,37,0.00,,,0.00,172.000000,,2013-12-18 22:43:00,
2013-12-18 16:53:00,58.0,32.0,-100.00,SSW,194,9.0,20.0,37,0.00,,,0.00,172.000000,,2013-12-18 22:53:00,
2013-12-18 17:02:00,58.0,32.0,-100.00,SSW,194,9.0,20.0,37,0.00,,,0.00,172.000000,,2013-12-18 23:02:00,
2013-12-18 17:12:00,58.0,32.0,-100.00,SSW,194,9.0,20.0,37,0.00,,,0.00,172.000000,,2013-12-18 23:12:00,
2013-12-18 17:42:00,55.0,31.0,-100.00,South,186,7.0,16.0,40,0.00,,,0.00,22.000000,,2013-12-18 23:42:00,
2013-12-18 17:53:00,55.0,31.0,-100.00,South,186,7.0,16.0,40,0.00,,,0.00,22.000000,,2013-12-18 23:53:00,
2013-12-18 18:02:00,55.0,31.0,-100.00,South,186,7.0,16.0,40,0.00,,,0.00,22.000000,,2013-12-19 00:02:00,
2013-12-18 18:11:00,55.0,31.0,-100.00,South,186,7.0,16.0,40,0.00,,,0.00,22.000000,,2013-12-19 00:11:00,
2013-12-18 18:42:00,53.0,32.0,-100.00,South,180,6.0,14.0,44,0.00,,,0.00,0.000000,,2013-12-19 00:42:00,
2013-12-18 18:52:00,53.0,32.0,-100.00,South,180,6.0,14.0,44,0.00,,,0.00,0.000000,,2013-12-19 00:52:00,
2013-12-18 19:01:00,53.0,32.0,-100.00,South,180,6.0,14.0,44,0.00,,,0.00,0.000000,,2013-12-19 01:01:00,
2013-12-18 19:11:00,53.0,32.0,-100.00,South,180,6.0,14.0,44,0.00,,,0.00,0.000000,,2013-12-19 01:11:00,
2013-12-18 19:42:00,50.0,32.0,-100.00,South,180,6.0,11.0,49,0.00,,,0.00,0.000000,,2013-12-19 01:42:00,
2013-12-18 19:52:00,50.0,32.0,-100.00,South,180,6.0,11.0,49,0.00,,,0.00,0.000000,,2013-12-19 01:52:00,
2013-12-18 20:01:00,50.0,32.0,-100.00,South,180,6.0,11.0,49,0.00,,,0.00,0.000000,,2013-12-19 02:01:00,
2013-12-18 20:11:00,50.0,32.0,-100.00,South,180,6.0,11.0,49,0.00,,,0.00,0.000000,,2013-12-19 02:11:00,
2013-12-18 20:52:00,50.0,32.0,-100.00,South,186,6.0,11.0,50,0.00,,,0.00,0.000000,,2013-12-19 02:52:00,
2013-12-18 21:02:00,50.0,32.0,-100.00,South,186,6.0,11.0,50,0.00,,,0.00,0.000000,,2013-12-19 03:02:00,
2013-12-18 21:12:00,50.0,32.0,-100.00,South,186,6.0,11.0,50,0.00,,,0.00,0.000000,,2013-12-19 03:12:00,
2013-12-18 21:43:00,50.0,33.0,-100.00,South,182,7.0,15.0,51,0.00,,,0.00,0.000000,,2013-12-19 03:43:00,
2013-12-18 21:54:00,50.0,33.0,-100.00,South,182,7.0,15.0,51,0.00,,,0.00,0.000000,,2013-12-19 03:54:00,
2013-12-18 22:03:00,50.0,33.0,-100.00,South,182,7.0,15.0,51,0.00,,,0.00,0.000000,,2013-12-19 04:03:00,
2013-12-18 22:12:00,50.0,33.0,-100.00,South,182,7.0,15.0,51,0.00,,,0.00,0.000000,,2013-12-19 04:12:00,
2013-12-18 22:43:00,50.0,34.0,-100.00,South,189,6.0,13.0,54,0.00,,,0.00,0.000000,,2013-12-19 04:43:00,
2013-12-18 22:53:00,50.0,34.0,-100.00,South,189,6.0,13.0,54,0.00,,,0.00,0.000000,,2013-12-19 04:53:00,
2013-12-18 23:03:00,50.0,34.0,-100.00,South,189,6.0,13.0,54,0.00,,,0.00,0.000000,,2013-12-19 05:03:00,
2013-12-18 23:12:00,50.0,34.0,-100.00,South,189,6.0,13.0,54,0.00,,,0.00,0.000000,,2013-12-19 05:12:00,
2013-12-18 23:42:00,51.0,35.0,-100.00,SSW,197,8.0,14.0,54,0.00,,,-99.99,0.000000,,2013-12-19 05:42:00,
2013-12-18 23:52:00,51.0,35.0,-100.00,SSW,197,8.0,14.0,54,0.00,,,-99.99,0.000000,,2013-12-19 05:52:00,